This is the latest recevied weather packets stored in our database for station/object KM4RT-13. If no packets are shown the sender has not sent any weather packets the latest 10 day(s).
| Time | Temp. | Humidity | Pressure | Rain* | Wind** | Luminosity | Snow |
|---|---|---|---|---|---|---|---|
| 1777984257 | 17.22° C | 78% | 1007.5 hPa | 0 mm | - | 33 W/m² | - |
| 1777983953 | 17.22° C | 78% | 1007.5 hPa | 0 mm | - | 27 W/m² | - |
| 1777983651 | 17.22° C | 78% | 1007.5 hPa | 0 mm | - | 26 W/m² | - |
| 1777983347 | 17.22° C | 78% | 1007.5 hPa | 0 mm | - | 24 W/m² | - |
| 1777983044 | 17.22° C | 77% | 1007.4 hPa | 0 mm | - | 19 W/m² | - |
| 1777982741 | 17.22° C | 77% | 1007.3 hPa | 0 mm | - | 16 W/m² | - |
| 1777982436 | 17.22° C | 77% | 1007.2 hPa | 0 mm | - | 13 W/m² | - |
| 1777982131 | 17.22° C | 77% | 1007.2 hPa | 0 mm | - | 11 W/m² | - |
| 1777981829 | 17.22° C | 77% | 1007.2 hPa | 0 mm | - | 10 W/m² | - |
| 1777981525 | 17.22° C | 77% | 1007 hPa | 0 mm | - | 8 W/m² | - |
| 1777981222 | 17.22° C | 76% | 1007.1 hPa | 0 mm | - | 6 W/m² | - |
| 1777980918 | 17.22° C | 76% | 1007 hPa | 0 mm | - | 6 W/m² | - |
| 1777980614 | 17.22° C | 76% | 1006.8 hPa | 0 mm | - | 5 W/m² | - |
| 1777980310 | 17.22° C | 76% | 1006.6 hPa | 0 mm | - | 5 W/m² | - |
| 1777980009 | 17.22° C | 76% | 1006.4 hPa | 0 mm | - | 3 W/m² | - |
| 1777979702 | 17.22° C | 76% | 1006.6 hPa | 0 mm | - | 2 W/m² | - |
| 1777979399 | 17.22° C | 75% | 1006.3 hPa | 0 mm | - | 1 W/m² | - |
| 1777979095 | 17.22° C | 76% | 1006.3 hPa | 0 mm | - | 1 W/m² | - |
| 1777978792 | 17.22° C | 75% | 1006.7 hPa | 0 mm | - | 0 W/m² | - |
| 1777978489 | 17.22° C | 75% | 1006.5 hPa | 0 mm | - | 0 W/m² | - |
| 1777978185 | 17.22° C | 75% | 1006.6 hPa | 0 mm | - | 0 W/m² | - |
| 1777977882 | 17.78° C | 75% | 1006.3 hPa | 0 mm | - | 0 W/m² | - |
| 1777977579 | 17.78° C | 75% | 1006.4 hPa | 0 mm | - | 0 W/m² | - |
| 1777977276 | 17.78° C | 75% | 1006.3 hPa | 0 mm | - | 0 W/m² | - |
| 1777976973 | 17.78° C | 74% | 1006.3 hPa | 0 mm | - | 0 W/m² | - |
* Rain latest hour (hover to see other rain measurements)
** Current wind speed in m/s (hover to see current wind gust speed)